Regional Weather Roundup
Issued by NWS Charleston, SC

Home | Current Version | Previous Version | Text Only | Print | Product List | Glossary On
Versions: 1 2 3 4 5 6 7 8 9 10 11 12 13 14 15 16 17 18 19 20 21 22 23 24 25 26 27 28 29 30 31 32 33 34 35 36 37 38 39 40 41 42 43 44 45 46 47 48 49 50
000
ASUS42 KCHS 270828
RWRCHS

REGIONAL WEATHER ROUNDUP
NATIONAL WEATHER SERVICE CHARLESTON SC
400 AM EDT SAT AUG 27 2016

NOTE: "FAIR" INDICATES FEW OR NO CLOUDS BELOW 12,000 FEET WITH NO
SIGNIFICANT WEATHER AND/OR OBSTRUCTIONS TO VISIBILITY.

NOT ALL STATIONS ARE QUALITY CONTROLLED. USE DATA WITH CAUTION...
ESPECIALLY DEWPOINT OBSERVATIONS.

SCZ027-030-031-034>040-042>050-270900-
...SOUTHEAST SOUTH CAROLINA...

CITY           SKY/WX    TMP DP  RH WIND       PRES   REMARKS
N CHARLESTON   CLEAR     75  71  87 N7        30.05F
WATERFRONT PRK   N/A     80  74  82 NE6       30.03F
MOUNT PLEASANT FAIR      73  73 100 CALM      30.06S
JOHNS ISLAND   FAIR      72  70  94 CALM      30.05S
PINOPOLIS        N/A     79  73  83 CALM      29.99F
MONCKS CORNER  FAIR      70  70 100 CALM      30.06F
SUMMERVILLE    FAIR      70  70 100 CALM      30.07F
BEAUFORT MCAS  CLEAR     72  70  93 N5        30.04F
BEAUFORT ARPT  FAIR      75  72  88 N3        30.03F
HILTON HEAD IS CLEAR     72  70  94 CALM      30.04F
WALTERBORO     MOSUNNY   72  72 100 CALM      30.06F
ALLENDALE      FAIR      72  70  94 CALM      30.05F

...SOUTHERN MIDLANDS AND PEE DEE...

CITY           SKY/WX    TMP DP  RH WIND       PRES   REMARKS
GEORGETOWN     FAIR      70  70 100 CALM      30.08S
KINGSTREE      FAIR      68  64  88 CALM      30.07F
ORANGEBURG     PTCLDY    72  70  93 CALM      30.07F
BARNWELL       NOT AVBL
AIKEN          FAIR      72  68  88 CALM      30.11F
MANNING        FAIR      70  68  94 CALM      30.07F
COLUMBIA       PTCLDY    77  71  82 CALM      30.07F
SUMTER         PTCLDY    74  71  88 NE3       30.06F
FLORENCE       CLEAR     74  71  91 CALM      30.08F
MYRTLE BEACH   CLEAR     75  64  69 N5        30.09F
N MYRTLE BEACH CLEAR     72  71  97 N3        30.07F

$$

GAZ063-065-086>088-099>101-113>116-118-119-134>141-150-270900-
...SOUTHEAST GEORGIA...

CITY           SKY/WX    TMP DP  RH WIND       PRES   REMARKS
SAVANNAH ARPT  CLEAR     71  69  93 N3        30.04F
HUNTER AAF     CLEAR     72  72 100 N2        30.01F
FORT STEWART   CLEAR     68  66  93 CALM      30.02F
STATESBORO     PTCLDY    71  70  98 CALM      30.05F
SYLVANIA       NOT AVBL
CLAXTON        FOG       65  65 100 CALM      30.05S VSB 1

...CSRA...CENTRAL AND FAR SOUTHEAST GEORGIA...

CITY           SKY/WX    TMP DP  RH WIND       PRES   REMARKS
THOMSON        CLEAR     75  74  96 MISG      30.12S
AUGUSTA-BUSH   PTCLDY    72  71  97 CALM      30.06F FOG
AUGUSTA-DANIEL CLEAR     78  71  79 SE5       30.08F
SWAINSBORO     FAIR      72  70  94 CALM      30.07F
VIDALIA        PTCLDY    72  72 100 CALM      30.05S
EASTMAN        FOG       69  69 100 CALM      30.07F VSB 1
HAZLEHURST     FAIR      69  69 100 CALM      30.03F
ALMA           CLEAR     65  65 100 E3        30.02F FOG
WAYCROSS         N/A     69  69 100 CALM      30.02F
JESUP          FAIR      68  68 100 CALM      30.03F
BAXLEY         FAIR      66  66 100 CALM      30.03F FOG
BRUNSWICK      PTCLDY    72  72 100 CALM      30.02F
SAINT SIMONS   CLEAR     75  71  87 N6        30.01F

$$

SCZ027-028-034-036>038-045-046-048>050-GAZ119-141-270900-
...LAKE AND SUPPLEMENTAL COASTAL OBSERVATIONS...

STATION/POSITION TIME  TEMP    WIND        PRES    WAVE   SWELL
                       AIR SEA DIR/SP/G            HT/PER HT/PER/DIR
                 (UTC) (F)     (DEG/KT/KT) (MB)    (FT/S) (FT/S/D)
WINYAH BAY       0700   75     330/  2     1018.0S
LAKE MURRAY      0700   81     210/  5/  7 1018.3S
ACE BASIN NERRS  0700   72        CALM     1018.0S
FORT PULASKI     0800   79 85  350/  6/  8 1017.2F
SAPELO ISLAND    0800   74      20/  4     1016.0F

$$

ANZ835-935-AMZ111-154-330-350-352-354-370-450-454-472-270900-
...C-MAN AND BUOY OBSERVATIONS...

STATION/POSITION TIME  TEMP    WIND        PRES    WAVE   SWELL
                       AIR SEA DIR/SP/G            HT/PER HT/PER/DIR
                 (UTC) (F)     (DEG/KT/KT) (MB)    (FT/S) (FT/S/D)
BUOY 41004       0750   82 84   50/ 10/ 14 1016.5F   3/11   3/120/11
BUOY 41008       0750   81 85   50/ 10/ 14 1016.0F   3/11   3/130/11
FOLLY BEACH CMAN 0800   81      60/  9/ 10 1017.6F
CAPERS NEARSHORE 0808   81 84   70/ 10/ 12 1017.3F
FRIPP NEARSHORE  0808   82 86   80/  8/ 12 1016.2F


STATION/POSITION TIME  TEMP    WIND        PRES    WAVE   SWELL
                       AIR SEA DIR/SP/G            HT/PER HT/PER/DIR
                 (UTC) (F)     (DEG/KT/KT) (MB)    (FT/S) (FT/S/D)
5E ST. MARYS GA  0801      84                N/A     4/11   2/110/11
FRYING PAN BUOY  0800   82 85   80/  8/ 10 1017.9F
BUOY 41025       0750   81 85  190/  4/  8 1018.7F   2/ 8   2/100/ 8
CAPE LOOKOUT NC  0800   80     190/  3/  3 1018.5S
BUOY 41002       0750   82 84   60/  8/ 10 1016.7F   4/ 9   5/130/ 9
BUOY 41010       NOT AVBL
ST AUGUSTINE FL  0800   81 83   50/  9/ 10 1016.0F


$$




USA.gov is the U.S. government's official web portal to all federal, state and local government web resources and services.